Weather in Varde

Denmark     55°37′15″N   8°28′58″E
temp.,
°C
wind,
m/s
gust,
m/s
humid.,
%
clouds,
%
prec.,
mm/h
press.,
hPa
HPBL,
m
17 april, sat
sat1723:00+5n23655 0.0 102937
02:00+4n47725 0.0 1028138
05:00+3n47766 0.0 1027122
08:00+5nne497059 0.0 1027273
11:00+10ne694778 0.0 1027772
14:00+13ne574216 0.0 10261039
17:00+13e45465 0.0 10251115
20:00+9e36674 0.0 1025112
18 april, sun
sun1823:00+7ene347390 0.0 102645
02:00+8ne2268100 0.0 102534
05:00+8nne3470100 0.0 102474
08:00+8ene368097 0.0 1024196
11:00+10e467297 0.0 1024434
14:00+13e456394 0.0 1024882
17:00+13e5565100 0.0 1024774
20:00+10e4680100 0.0 1025341
19 april, mon
mon1923:00+8e489156 0.1 1025185
02:00+7ene369213 0.1 1025104
05:00+8ne3784100 0.0 1024177
08:00+9ene5108185 0.0 1024296
11:00+13e685025 0.0 1023706
14:00+15e67446 0.0 1022942
17:00+14e56500 0.0 1021899
20:00+11e47693 0.0 1021157
20 april, tue
tue2023:00+8e467719 0.0 1021103
02:00+7ese47795 0.0 1021104
05:00+6e35755 0.0 102061
08:00+7e35705 0.0 1019139
11:00+12e45534 0.0 1018714
14:00+14ese23457 0.0 10171532
17:00+12wnw435369 0.0 1015815
20:00+10nnw467299 0.0 1015211
21 april, wed
wed2123:00+9n2273100 0.0 101458
02:00+9w2273100 0.0 101339
05:00+8w3675100 0.0 1011173
08:00+7w5787100 0.2 1010659
11:00+5nnw91294100 1.5 1011817
14:00+8nw11126589 2.0 10101531
17:00+7nw1215605 0.0 10111419
20:00+5nw12167122 0.1 10101464